User: anonymous   Login
Location: Unspecified
(43.0000°N, 0.0000°E)
Time: 00:09:40
(UTC+00:00)
Language:

KKS-1 - Orbit

View from above orbital plane
View from above orbital plane
View from above satellite
View from above satellite

Ground track
Ground track

The orbit data is extracted from the following two-line orbital elements,

1 33499U 09002H   19201.20958622  .00000026  00000-0  11824-4 0  9994
2 33499  98.3486  40.9191 0010467 104.1843 256.0529 14.75449017563871
Epoch (UTC): 20 July 2019 05:01:48
Eccentricity: 0.0010467
inclination: 98.3486°
perigee height: 636 km
apogee height: 651 km
right ascension of ascending node: 40.9191°
argument of perigee: 104.1843°
revolutions per day: 14.75449017
mean anomaly at epoch: 256.0529°
orbit number at epoch: 56387

The dashed part of the orbit path shows where the satellite is in the earth's shadow,  

DLR